Time,TemperatureF,DewpointF,PressureIn,WindDirection,WindDirectionDegrees,WindSpeedMPH,WindSpeedGustMPH,Humidity,HourlyPrecipIn,Conditions,Clouds,dailyrainin,SoftwareType,DateUTC
2013-05-11 00:00:00,67.3,63.3,29.78,East,90,0.0,-999.0,87,-99.99,,,0.00,Acu-Link.com,2013-05-11 04:00:00,
2013-05-11 00:15:00,67.1,63.1,29.78,ESE,112,0.0,-999.0,87,-99.99,,,0.00,Acu-Link.com,2013-05-11 04:15:00,
2013-05-11 00:31:00,67.1,63.1,29.78,South,180,0.0,-999.0,87,-99.99,,,0.00,Acu-Link.com,2013-05-11 04:31:00,
2013-05-11 00:46:00,67.1,63.1,29.78,SSE,157,0.0,-999.0,87,-99.99,,,0.00,Acu-Link.com,2013-05-11 04:46:00,
2013-05-11 01:01:00,66.9,62.9,29.78,ESE,112,1.7,-999.0,87,-99.99,,,0.00,Acu-Link.com,2013-05-11 05:01:00,
2013-05-11 01:16:00,66.9,62.9,29.78,ENE,67,1.7,-999.0,87,-99.99,,,0.00,Acu-Link.com,2013-05-11 05:16:00,
2013-05-11 01:32:00,66.7,62.7,29.78,ESE,112,1.7,-999.0,87,-99.99,,,0.00,Acu-Link.com,2013-05-11 05:32:00,
2013-05-11 01:47:00,66.6,62.6,29.77,South,180,2.2,-999.0,87,-99.99,,,0.00,Acu-Link.com,2013-05-11 05:47:00,
2013-05-11 02:02:00,66.2,62.5,29.76,WSW,247,1.7,-999.0,88,-99.99,,,0.00,Acu-Link.com,2013-05-11 06:02:00,
2013-05-11 02:18:00,65.5,62.2,29.76,SW,225,1.1,-999.0,89,-99.99,,,0.00,Acu-Link.com,2013-05-11 06:18:00,
2013-05-11 02:33:00,65.1,62.1,29.75,West,270,1.7,-999.0,90,-99.99,,,0.00,Acu-Link.com,2013-05-11 06:33:00,
2013-05-11 02:48:00,64.4,61.7,29.75,WSW,247,1.1,-999.0,91,-99.99,,,0.00,Acu-Link.com,2013-05-11 06:48:00,
2013-05-11 03:03:00,63.9,61.5,29.75,SW,225,0.0,-999.0,92,-99.99,,,0.00,Acu-Link.com,2013-05-11 07:03:00,
2013-05-11 03:19:00,63.5,61.4,29.74,WNW,292,2.7,-999.0,93,-99.99,,,0.00,Acu-Link.com,2013-05-11 07:19:00,
2013-05-11 03:34:00,63.3,61.2,29.75,West,270,1.7,-999.0,93,-99.99,,,0.00,Acu-Link.com,2013-05-11 07:34:00,
2013-05-11 03:49:00,63.3,61.2,29.75,West,270,2.2,-999.0,93,-99.99,,,0.00,Acu-Link.com,2013-05-11 07:49:00,
2013-05-11 04:04:00,63.1,61.0,29.75,West,270,3.2,-999.0,93,-99.99,,,0.00,Acu-Link.com,2013-05-11 08:04:00,
2013-05-11 04:20:00,62.8,60.7,29.75,West,270,1.1,-999.0,93,-99.99,,,0.00,Acu-Link.com,2013-05-11 08:20:00,
2013-05-11 04:35:00,62.6,60.5,29.74,West,270,1.7,-999.0,93,-99.99,,,0.00,Acu-Link.com,2013-05-11 08:35:00,
2013-05-11 04:50:00,62.6,60.5,29.74,WSW,247,1.7,-999.0,93,-99.99,,,0.00,Acu-Link.com,2013-05-11 08:50:00,
2013-05-11 05:05:00,62.2,60.1,29.73,West,270,0.0,-999.0,93,-99.99,,,0.00,Acu-Link.com,2013-05-11 09:05:00,
2013-05-11 05:20:00,61.7,59.7,29.73,SSW,202,0.0,-999.0,93,-99.99,,,0.00,Acu-Link.com,2013-05-11 09:20:00,
2013-05-11 05:35:00,61.3,59.3,29.73,West,270,1.7,-999.0,93,-99.99,,,0.00,Acu-Link.com,2013-05-11 09:35:00,
2013-05-11 05:50:00,61.5,59.8,29.73,East,90,1.1,-999.0,94,-99.99,,,0.00,Acu-Link.com,2013-05-11 09:50:00,
2013-05-11 06:06:00,61.3,59.6,29.73,ESE,112,1.7,-999.0,94,-99.99,,,0.00,Acu-Link.com,2013-05-11 10:06:00,
2013-05-11 06:21:00,61.2,59.5,29.73,SSE,157,2.2,-999.0,94,-99.99,,,0.00,Acu-Link.com,2013-05-11 10:21:00,
2013-05-11 06:36:00,61.2,59.8,29.73,NNE,22,2.2,-999.0,95,-99.99,,,0.00,Acu-Link.com,2013-05-11 10:36:00,
2013-05-11 06:51:00,61.2,60.0,29.74,South,180,1.7,-999.0,96,-99.99,,,0.00,Acu-Link.com,2013-05-11 10:51:00,
2013-05-11 07:06:00,61.3,60.1,29.73,ESE,112,1.1,-999.0,96,-99.99,,,0.00,Acu-Link.com,2013-05-11 11:06:00,
2013-05-11 07:22:00,61.3,60.1,29.74,WNW,292,0.0,-999.0,96,-99.99,,,0.00,Acu-Link.com,2013-05-11 11:22:00,
2013-05-11 07:37:00,61.5,60.3,29.74,West,270,0.0,-999.0,96,-99.99,,,0.00,Acu-Link.com,2013-05-11 11:37:00,
2013-05-11 07:52:00,62.1,60.9,29.74,West,270,2.2,-999.0,96,-99.99,,,0.00,Acu-Link.com,2013-05-11 11:52:00,
2013-05-11 08:07:00,63.1,61.3,29.74,North,0,0.0,-999.0,94,-99.99,,,0.00,Acu-Link.com,2013-05-11 12:07:00,
2013-05-11 08:23:00,66.7,63.4,29.75,West,270,1.7,-999.0,89,-99.99,,,0.00,Acu-Link.com,2013-05-11 12:23:00,
2013-05-11 08:38:00,68.5,63.8,29.75,West,270,2.2,-999.0,85,-99.99,,,0.00,Acu-Link.com,2013-05-11 12:38:00,
2013-05-11 08:53:00,71.1,65.3,29.75,SW,225,1.7,-999.0,82,-99.99,,,0.00,Acu-Link.com,2013-05-11 12:53:00,
2013-05-11 09:08:00,72.9,65.3,29.74,SW,225,3.7,-999.0,77,-99.99,,,0.00,Acu-Link.com,2013-05-11 13:08:00,
2013-05-11 09:23:00,74.8,66.7,29.75,NNE,22,3.2,-999.0,76,-99.99,,,0.00,Acu-Link.com,2013-05-11 13:23:00,
2013-05-11 09:39:00,72.0,64.4,29.75,SSE,157,1.7,-999.0,77,-99.99,,,0.00,Acu-Link.com,2013-05-11 13:39:00,
2013-05-11 09:54:00,71.2,64.7,29.74,SE,135,3.2,-999.0,80,-99.99,,,0.00,Acu-Link.com,2013-05-11 13:54:00,
2013-05-11 10:09:00,70.7,63.9,29.74,SSW,202,3.2,-999.0,79,-99.99,,,0.00,Acu-Link.com,2013-05-11 14:09:00,
2013-05-11 10:24:00,71.2,64.7,29.74,SSW,202,2.2,-999.0,80,-99.99,,,0.00,Acu-Link.com,2013-05-11 14:24:00,
2013-05-11 10:39:00,71.4,63.8,29.74,WNW,292,5.3,-999.0,77,-99.99,,,0.00,Acu-Link.com,2013-05-11 14:39:00,
2013-05-11 10:55:00,73.0,64.2,29.74,SW,225,4.2,-999.0,74,-99.99,,,0.00,Acu-Link.com,2013-05-11 14:55:00,
2013-05-11 11:10:00,73.9,65.1,29.73,West,270,2.2,-999.0,74,-99.99,,,0.00,Acu-Link.com,2013-05-11 15:10:00,
2013-05-11 11:25:00,73.2,64.8,29.73,West,270,3.2,-999.0,75,-99.99,,,0.00,Acu-Link.com,2013-05-11 15:25:00,
2013-05-11 11:40:00,72.3,64.3,29.72,West,270,3.7,-999.0,76,-99.99,,,0.00,Acu-Link.com,2013-05-11 15:40:00,
2013-05-11 11:55:00,73.4,64.6,29.71,WNW,292,4.2,-999.0,74,-99.99,,,0.00,Acu-Link.com,2013-05-11 15:55:00,
2013-05-11 12:11:00,72.3,64.3,29.73,NW,315,4.7,-999.0,76,-99.99,,,0.00,Acu-Link.com,2013-05-11 16:11:00,
2013-05-11 12:26:00,73.0,65.4,29.73,NW,315,1.7,-999.0,77,-99.99,,,0.00,Acu-Link.com,2013-05-11 16:26:00,
2013-05-11 12:41:00,71.4,64.2,29.73,West,270,3.7,-999.0,78,-99.99,,,0.00,Acu-Link.com,2013-05-11 16:41:00,
2013-05-11 12:56:00,73.2,65.2,29.72,WNW,292,5.3,-999.0,76,-99.99,,,0.00,Acu-Link.com,2013-05-11 16:56:00,
2013-05-11 13:11:00,74.7,65.8,29.72,SSE,157,4.7,-999.0,74,-99.99,,,0.00,Acu-Link.com,2013-05-11 17:11:00,
2013-05-11 13:27:00,74.5,65.7,29.72,WSW,247,4.7,-999.0,74,-99.99,,,0.00,Acu-Link.com,2013-05-11 17:27:00,
2013-05-11 13:42:00,74.7,66.2,29.71,West,270,3.7,-999.0,75,-99.99,,,0.00,Acu-Link.com,2013-05-11 17:42:00,
2013-05-11 13:57:00,75.6,65.9,29.71,ESE,112,5.3,-999.0,72,-99.99,,,0.00,Acu-Link.com,2013-05-11 17:57:00,
2013-05-11 14:12:00,74.5,64.9,29.70,SSE,157,3.2,-999.0,72,-99.99,,,0.00,Acu-Link.com,2013-05-11 18:12:00,
2013-05-11 14:28:00,75.6,66.7,29.70,SSW,202,3.7,-999.0,74,-99.99,,,0.00,Acu-Link.com,2013-05-11 18:28:00,
2013-05-11 14:43:00,74.1,65.7,29.70,SSW,202,4.7,-999.0,75,-99.99,,,0.00,Acu-Link.com,2013-05-11 18:43:00,
2013-05-11 14:58:00,73.6,65.9,29.69,SSE,157,4.7,-999.0,77,-99.99,,,0.00,Acu-Link.com,2013-05-11 18:58:00,
2013-05-11 15:13:00,73.9,65.5,29.69,NNW,337,3.7,-999.0,75,-99.99,,,0.00,Acu-Link.com,2013-05-11 19:13:00,
2013-05-11 15:28:00,73.9,66.2,29.68,North,0,5.3,-999.0,77,-99.99,,,0.00,Acu-Link.com,2013-05-11 19:28:00,
2013-05-11 15:44:00,73.6,65.2,29.67,West,270,3.2,-999.0,75,-99.99,,,0.00,Acu-Link.com,2013-05-11 19:44:00,
2013-05-11 15:59:00,73.9,66.2,29.68,West,270,5.8,-999.0,77,-99.99,,,0.00,Acu-Link.com,2013-05-11 19:59:00,
2013-05-11 16:14:00,74.5,66.8,29.67,West,270,4.2,-999.0,77,-99.99,,,0.00,Acu-Link.com,2013-05-11 20:14:00,
2013-05-11 16:29:00,75.9,67.4,29.67,West,270,2.7,-999.0,75,-99.99,,,0.00,Acu-Link.com,2013-05-11 20:29:00,
2013-05-11 16:44:00,75.9,66.2,29.66,WNW,292,3.2,-999.0,72,-99.99,,,0.00,Acu-Link.com,2013-05-11 20:44:00,
2013-05-11 17:00:00,76.1,66.0,29.65,WNW,292,10.9,-999.0,71,-99.99,,,0.00,Acu-Link.com,2013-05-11 21:00:00,
2013-05-11 17:15:00,77.2,65.8,29.65,SSW,202,4.7,-999.0,68,-99.99,,,0.00,Acu-Link.com,2013-05-11 21:15:00,
2013-05-11 17:30:00,76.6,64.8,29.65,West,270,5.3,-999.0,67,-99.99,,,0.00,Acu-Link.com,2013-05-11 21:30:00,
2013-05-11 17:45:00,76.3,65.4,29.65,WNW,292,5.3,-999.0,69,-99.99,,,0.00,Acu-Link.com,2013-05-11 21:45:00,
2013-05-11 18:01:00,76.1,64.3,29.63,WNW,292,3.7,-999.0,67,-99.99,,,0.00,Acu-Link.com,2013-05-11 22:01:00,
2013-05-11 18:16:00,79.3,66.0,29.64,South,180,3.7,-999.0,64,-99.99,,,0.00,Acu-Link.com,2013-05-11 22:16:00,
2013-05-11 18:31:00,77.9,65.2,29.64,SSW,202,3.2,-999.0,65,-99.99,,,0.00,Acu-Link.com,2013-05-11 22:31:00,
2013-05-11 18:46:00,76.8,64.6,29.64,NNW,337,3.7,-999.0,66,-99.99,,,0.00,Acu-Link.com,2013-05-11 22:46:00,
2013-05-11 19:01:00,75.2,64.3,29.64,WNW,292,1.1,-999.0,69,-99.99,,,0.00,Acu-Link.com,2013-05-11 23:01:00,
2013-05-11 19:17:00,72.3,61.1,29.65,WSW,247,2.7,-999.0,68,-99.99,,,0.00,Acu-Link.com,2013-05-11 23:17:00,
2013-05-11 19:32:00,71.2,60.5,29.66,West,270,1.1,-999.0,69,-99.99,,,0.00,Acu-Link.com,2013-05-11 23:32:00,
2013-05-11 19:47:00,68.5,59.9,29.68,West,270,8.3,-999.0,74,-99.99,,,0.00,Acu-Link.com,2013-05-11 23:47:00,
2013-05-11 20:03:00,64.4,59.8,29.68,WNW,292,1.1,-999.0,85,-99.99,,,0.01,Acu-Link.com,2013-05-12 00:03:00,
2013-05-11 20:18:00,64.0,60.7,29.66,West,270,1.7,-999.0,89,-99.99,,,0.02,Acu-Link.com,2013-05-12 00:18:00,
2013-05-11 20:33:00,63.3,60.0,29.66,South,180,0.0,-999.0,89,-99.99,,,0.02,Acu-Link.com,2013-05-12 00:33:00,
2013-05-11 20:49:00,62.6,59.9,29.67,NW,315,0.0,-999.0,91,-99.99,,,0.02,Acu-Link.com,2013-05-12 00:49:00,
2013-05-11 21:04:00,61.7,59.7,29.67,ESE,112,1.7,-999.0,93,-99.99,,,0.02,Acu-Link.com,2013-05-12 01:04:00,
2013-05-11 21:19:00,61.2,59.5,29.67,ESE,112,1.7,-999.0,94,-99.99,,,0.02,Acu-Link.com,2013-05-12 01:19:00,
2013-05-11 21:34:00,60.6,59.2,29.68,ESE,112,0.0,-999.0,95,-99.99,,,0.02,Acu-Link.com,2013-05-12 01:34:00,
2013-05-11 21:50:00,60.6,59.5,29.68,NNE,22,0.0,-999.0,96,-99.99,,,0.02,Acu-Link.com,2013-05-12 01:50:00,
2013-05-11 22:05:00,60.8,59.9,29.69,ENE,67,0.0,-999.0,97,-99.99,,,0.02,Acu-Link.com,2013-05-12 02:05:00,
2013-05-11 22:20:00,60.8,59.9,29.69,East,90,1.1,-999.0,97,-99.99,,,0.02,Acu-Link.com,2013-05-12 02:20:00,
2013-05-11 22:35:00,60.8,59.9,29.70,ESE,112,0.0,-999.0,97,-99.99,,,0.02,Acu-Link.com,2013-05-12 02:35:00,
2013-05-11 22:51:00,60.6,59.7,29.70,NW,315,0.0,-999.0,97,-99.99,,,0.02,Acu-Link.com,2013-05-12 02:51:00,
2013-05-11 23:06:00,60.3,59.4,29.70,East,90,0.0,-999.0,97,-99.99,,,0.02,Acu-Link.com,2013-05-12 03:06:00,
2013-05-11 23:21:00,59.7,58.8,29.70,NNW,337,1.7,-999.0,97,-99.99,,,0.02,Acu-Link.com,2013-05-12 03:21:00,
2013-05-11 23:37:00,59.4,58.8,29.71,NNW,337,0.0,-999.0,98,-99.99,,,0.02,Acu-Link.com,2013-05-12 03:37:00,
2013-05-11 23:52:00,59.4,58.8,29.71,WSW,247,0.0,-999.0,98,-99.99,,,0.02,Acu-Link.com,2013-05-12 03:52:00,